User: anonymous   Login
Location: Unspecified
(0.0000°N, 0.0000°E)
Time: 16:20:37
(UTC+00:00)
Language:

Aureole 3 - Orbit

View from above orbital plane
View from above orbital plane
View from above satellite
View from above satellite

Ground track
Ground track

The orbit data is extracted from the following two-line orbital elements,

1 12848U 81094A   18114.87187104  .00350902  00000-0  19838-1 0  9995
2 12848  82.4862  13.2678 0594121 305.6400  49.0819 14.25957949833912
Epoch (UTC): 24 April 2018 20:55:29
Eccentricity: 0.0594121
inclination: 82.4862°
perigee height: 378 km
apogee height: 1232 km
right ascension of ascending node: 13.2678°
argument of perigee: 305.6400°
revolutions per day: 14.25957949
mean anomaly at epoch: 49.0819°
orbit number at epoch: 83391

The dashed part of the orbit path shows where the satellite is in the earth's shadow,  

DLR